Location: ???
(60.6398°N, 46.9067°E)
Time: 16:38:30
(UTC+00:00)

Cosmos 2315 Rocket - Pass Details

Date: 08 December 2019
Orbit: 965 x 1003 km, 82.9° (Epoch: 22 January)

Event Time Altitude Azimuth Distance (km) Brightness Sun altitude
Rises 15:18:43 0° 344° (NNW) 3,742 7.2 -23.9°
Reaches altitude 10° 15:21:24 10° 350° (N) 2,786 6.4 -24.2°
Enters shadow 15:26:48 45° 43° (NE) 1,338 4.4 -24.9°
